Location: Unspecified
(0.0000°N, 0.0000°E)
Time: 18:51:04
(UTC+00:00)

STARLINK-36466 - Pass Details

Date: 11 January 2026
Orbit: 253 x 257 km, 43.0° (Epoch: 11 January)

Event Time Altitude Azimuth Distance (km) Brightness Sun altitude
Rises 18:40:50 0° 284° (WNW) 1,820 6.3 -7.6°
Reaches altitude 10° 18:43:44 10° 241° (WSW) 1,022 5.7 -8.3°
Maximum altitude 18:44:22 11° 225° (SW) 985 5.2 -8.4°
Drops below altitude 10° 18:45:00 10° 209° (SSW) 1,023 4.8 -8.6°
Sets 18:47:56 0° 166° (SSE) 1,824 5.4 -9.3°
